TimeEST,TemperatureF,Dew PointF,Humidity,Sea Level PressureIn,VisibilityMPH,Wind Direction,Wind SpeedMPH,Gust SpeedMPH,PrecipitationIn,Events,Conditions,WindDirDegrees,DateUTC
12:53 AM,62.1,55.9,80,30.07,10.0,WNW,4.6,-,N/A,,Partly Cloudy,300,2012-11-25 05:53:00
1:53 AM,60.1,55.9,86,30.06,10.0,WNW,5.8,-,N/A,,Partly Cloudy,290,2012-11-25 06:53:00
2:53 AM,59.0,54.0,83,30.06,10.0,WNW,5.8,-,N/A,,Clear,300,2012-11-25 07:53:00
3:53 AM,57.9,54.0,87,30.06,10.0,NW,6.9,-,N/A,,Clear,310,2012-11-25 08:53:00
4:53 AM,57.0,53.1,87,30.06,10.0,WNW,3.5,-,N/A,,Clear,300,2012-11-25 09:53:00
5:53 AM,55.9,52.0,87,30.07,10.0,WNW,5.8,-,N/A,,Clear,300,2012-11-25 10:53:00
6:53 AM,55.0,52.0,89,30.08,9.0,WNW,6.9,-,N/A,,Clear,300,2012-11-25 11:53:00
7:53 AM,57.0,53.1,87,30.10,10.0,NW,5.8,-,N/A,,Clear,310,2012-11-25 12:53:00
8:53 AM,61.0,53.1,75,30.12,10.0,WNW,5.8,-,N/A,,Partly Cloudy,300,2012-11-25 13:53:00
9:53 AM,66.9,54.0,63,30.13,10.0,WNW,4.6,-,N/A,,Clear,300,2012-11-25 14:53:00
10:53 AM,71.1,54.0,55,30.13,10.0,NW,5.8,-,N/A,,Partly Cloudy,320,2012-11-25 15:53:00
11:53 AM,73.0,53.1,49,30.12,10.0,Calm,Calm,-,N/A,,Partly Cloudy,0,2012-11-25 16:53:00
12:53 PM,73.9,51.1,45,30.09,10.0,Variable,3.5,-,N/A,,Clear,0,2012-11-25 17:53:00
1:53 PM,77.0,51.1,40,30.07,10.0,Calm,Calm,-,N/A,,Clear,0,2012-11-25 18:53:00
2:53 PM,75.9,50.0,40,30.06,10.0,Calm,Calm,-,N/A,,Clear,0,2012-11-25 19:53:00
3:53 PM,75.0,52.0,44,30.06,10.0,ESE,4.6,-,N/A,,Clear,110,2012-11-25 20:53:00
4:53 PM,73.0,52.0,48,30.07,10.0,SE,4.6,-,N/A,,Clear,130,2012-11-25 21:53:00
5:53 PM,70.0,53.1,55,30.08,10.0,SE,3.5,-,N/A,,Clear,140,2012-11-25 22:53:00
6:53 PM,66.9,55.0,66,30.10,10.0,Calm,Calm,-,N/A,,Clear,0,2012-11-25 23:53:00
7:53 PM,66.0,55.9,70,30.12,10.0,Calm,Calm,-,N/A,,Clear,0,2012-11-26 00:53:00
8:53 PM,64.0,55.9,75,30.13,10.0,Calm,Calm,-,N/A,,Clear,0,2012-11-26 01:53:00
9:53 PM,63.0,55.9,78,30.14,10.0,Calm,Calm,-,N/A,,Clear,0,2012-11-26 02:53:00
10:53 PM,64.9,55.9,73,30.13,10.0,Calm,Calm,-,N/A,,Clear,0,2012-11-26 03:53:00
11:53 PM,64.0,54.0,70,30.13,10.0,Calm,Calm,-,N/A,,Clear,0,2012-11-26 04:53:00